Location: Tucson
(32.2217°N, 110.9265°W)
Time: 02:56:49
(UTC-07:00)

Tiros 1 - Pass Details

Date: 28 October 2021
Orbit: 630 x 663 km, 48.4° (Epoch: 07 December)

Event Time Altitude Azimuth Distance (km) Brightness Sun altitude
Rises 08:25:16 0° 242° (WSW) 2,981 10.3 20.0°
Reaches altitude 10° 08:27:40 10° 247° (WSW) 2,071 9.5 20.5°
Maximum altitude 08:32:20 52° 324° (NW) 816 7.6 21.3°
Drops below altitude 10° 08:37:00 10° 41° (NE) 2,068 9.9 22.1°
Sets 08:39:24 0° 47° (NE) 2,977 10.7 22.6°
